Time,TemperatureF,DewpointF,PressureIn,WindDirection,WindDirectionDegrees,WindSpeedMPH,WindSpeedGustMPH,Humidity,HourlyPrecipIn,Conditions,Clouds,dailyrainin,SoftwareType,DateUTC
2013-01-04 00:00:00,31.6,23.3,30.13,WNW,292,0.0,6.0,71,0.00,,---,0.00,VWS V13.00,2013-01-04 05:00:00,
2013-01-04 00:02:00,31.8,23.5,30.13,SW,225,0.0,0.0,71,0.00,,---,0.00,VWS V13.00,2013-01-04 05:02:00,
2013-01-04 00:03:00,31.8,23.5,30.13,SW,225,0.0,0.0,71,0.00,,---,0.00,VWS V13.00,2013-01-04 05:03:00,
2013-01-04 00:08:00,31.8,23.5,30.13,ESE,112,0.0,0.0,71,0.00,,---,0.00,VWS V13.00,2013-01-04 05:08:00,
2013-01-04 00:13:00,31.6,23.3,30.13,West,270,0.8,0.8,71,0.00,,---,0.00,VWS V13.00,2013-01-04 05:13:00,
2013-01-04 00:18:00,31.6,23.3,30.13,WSW,248,6.4,6.4,71,0.00,,---,0.00,VWS V13.00,2013-01-04 05:18:00,
2013-01-04 00:23:00,31.8,23.5,30.13,WSW,248,0.0,0.0,71,0.00,,---,0.00,VWS V13.00,2013-01-04 05:23:00,
2013-01-04 00:28:00,31.8,23.5,30.13,SW,225,0.0,2.9,71,0.00,,---,0.00,VWS V13.00,2013-01-04 05:28:00,
2013-01-04 00:33:00,31.8,23.5,30.12,WNW,292,0.0,2.9,71,0.00,,---,0.00,VWS V13.00,2013-01-04 05:33:00,
2013-01-04 00:38:00,31.8,23.5,30.12,West,270,0.0,2.9,71,0.00,,---,0.00,VWS V13.00,2013-01-04 05:38:00,
2013-01-04 00:43:00,31.8,23.5,30.13,SW,225,0.0,0.0,71,0.00,,---,0.00,VWS V13.00,2013-01-04 05:43:00,
2013-01-04 00:48:00,31.8,23.5,30.12,WNW,292,0.0,1.1,71,0.00,,---,0.00,VWS V13.00,2013-01-04 05:48:00,
2013-01-04 00:53:00,31.8,23.5,30.12,WNW,292,2.0,4.2,71,0.00,,---,0.00,VWS V13.00,2013-01-04 05:53:00,
2013-01-04 00:58:00,31.8,23.5,30.12,SW,225,0.0,4.2,71,0.00,,---,0.00,VWS V13.00,2013-01-04 05:58:00,
2013-01-04 01:03:00,31.8,23.5,30.12,West,270,3.3,3.3,71,0.00,,---,0.00,VWS V13.00,2013-01-04 06:03:00,
2013-01-04 01:08:00,31.8,23.5,30.12,West,270,0.0,3.3,71,0.00,,---,0.00,VWS V13.00,2013-01-04 06:08:00,
2013-01-04 01:13:00,31.8,23.5,30.12,SW,225,0.0,3.3,71,0.00,,---,0.00,VWS V13.00,2013-01-04 06:13:00,
2013-01-04 01:18:00,31.8,23.5,30.12,NE,45,0.0,3.3,71,0.00,,---,0.00,VWS V13.00,2013-01-04 06:18:00,
2013-01-04 01:23:00,31.8,23.5,30.12,WNW,292,0.0,0.0,71,0.00,,---,0.00,VWS V13.00,2013-01-04 06:23:00,
2013-01-04 01:28:00,31.8,23.5,30.12,SSW,202,0.0,0.0,71,0.00,,---,0.00,VWS V13.00,2013-01-04 06:28:00,
2013-01-04 01:33:00,31.8,23.5,30.13,West,270,0.0,0.0,71,0.00,,---,0.00,VWS V13.00,2013-01-04 06:33:00,
2013-01-04 01:38:00,31.8,23.5,30.12,SSW,202,0.0,2.0,71,0.00,,---,0.00,VWS V13.00,2013-01-04 06:38:00,
2013-01-04 01:43:00,31.8,23.5,30.12,SW,225,0.0,0.0,71,0.00,,---,0.00,VWS V13.00,2013-01-04 06:43:00,
2013-01-04 01:48:00,31.6,23.3,30.13,WSW,248,3.8,3.8,71,0.00,,---,0.00,VWS V13.00,2013-01-04 06:48:00,
2013-01-04 01:53:00,31.6,23.3,30.13,SSW,202,0.0,3.8,71,0.00,,---,0.00,VWS V13.00,2013-01-04 06:53:00,
2013-01-04 01:58:00,31.6,23.3,30.12,West,270,0.0,3.8,71,0.00,,---,0.00,VWS V13.00,2013-01-04 06:58:00,
2013-01-04 02:03:00,31.6,23.3,30.13,SW,225,0.0,0.0,71,0.00,,---,0.00,VWS V13.00,2013-01-04 07:03:00,
2013-01-04 02:08:00,31.6,23.3,30.13,West,270,5.1,5.1,71,0.00,,---,0.00,VWS V13.00,2013-01-04 07:08:00,
2013-01-04 02:13:00,31.6,23.6,30.13,SSW,202,0.0,5.1,72,0.00,,---,0.00,VWS V13.00,2013-01-04 07:13:00,
2013-01-04 02:18:00,31.6,23.6,30.13,WNW,292,4.9,5.1,72,0.00,,---,0.00,VWS V13.00,2013-01-04 07:18:00,
2013-01-04 02:23:00,31.6,23.6,30.13,SW,225,0.0,0.0,72,0.00,,---,0.00,VWS V13.00,2013-01-04 07:23:00,
2013-01-04 02:28:00,31.6,23.6,30.13,North,0,0.0,0.0,72,0.00,,---,0.00,VWS V13.00,2013-01-04 07:28:00,
2013-01-04 02:33:00,31.6,23.6,30.13,WNW,292,0.0,0.0,72,0.00,,---,0.00,VWS V13.00,2013-01-04 07:33:00,
2013-01-04 02:38:00,31.6,23.6,30.13,WNW,292,6.9,6.9,72,0.00,,---,0.00,VWS V13.00,2013-01-04 07:38:00,
2013-01-04 02:43:00,31.6,23.6,30.13,NNW,338,0.0,6.9,72,0.00,,---,0.00,VWS V13.00,2013-01-04 07:43:00,
2013-01-04 02:48:00,31.6,23.6,30.13,WNW,292,0.0,6.9,72,0.00,,---,0.00,VWS V13.00,2013-01-04 07:48:00,
2013-01-04 02:53:00,31.8,23.8,30.13,WNW,292,2.0,6.9,72,0.00,,---,0.00,VWS V13.00,2013-01-04 07:53:00,
2013-01-04 02:58:00,31.8,23.8,30.13,West,270,2.9,6.9,72,0.00,,---,0.00,VWS V13.00,2013-01-04 07:58:00,
2013-01-04 03:03:00,31.8,23.5,30.13,SSW,202,0.0,1.7,71,0.00,,---,0.00,VWS V13.00,2013-01-04 08:03:00,
2013-01-04 03:08:00,31.8,23.5,30.13,NW,315,0.0,1.7,71,0.00,,---,0.00,VWS V13.00,2013-01-04 08:08:00,
2013-01-04 03:13:00,31.8,23.5,30.13,NNW,338,0.6,1.7,71,0.00,,---,0.00,VWS V13.00,2013-01-04 08:13:00,
2013-01-04 03:18:00,31.8,23.5,30.13,SW,225,0.0,1.7,71,0.00,,---,0.00,VWS V13.00,2013-01-04 08:18:00,
2013-01-04 03:23:00,31.8,23.5,30.13,NW,315,1.5,2.6,71,0.00,,---,0.00,VWS V13.00,2013-01-04 08:23:00,
2013-01-04 03:28:00,31.8,23.8,30.13,West,270,0.0,2.6,72,0.00,,---,0.00,VWS V13.00,2013-01-04 08:28:00,
2013-01-04 03:33:00,31.8,23.5,30.13,West,270,0.0,2.6,71,0.00,,---,0.00,VWS V13.00,2013-01-04 08:33:00,
2013-01-04 03:38:00,31.8,23.8,30.13,West,270,0.0,5.3,72,0.00,,---,0.00,VWS V13.00,2013-01-04 08:38:00,
2013-01-04 03:43:00,31.8,23.8,30.13,SW,225,0.0,0.0,72,0.00,,---,0.00,VWS V13.00,2013-01-04 08:43:00,
2013-01-04 03:48:00,31.6,23.3,30.13,West,270,0.0,0.0,71,0.00,,---,0.00,VWS V13.00,2013-01-04 08:48:00,
2013-01-04 03:53:00,31.6,23.3,30.13,NW,315,0.0,3.8,71,0.00,,---,0.00,VWS V13.00,2013-01-04 08:53:00,
2013-01-04 03:58:00,31.6,23.3,30.13,WNW,292,0.0,3.8,71,0.00,,---,0.00,VWS V13.00,2013-01-04 08:58:00,
2013-01-04 04:03:00,31.6,23.3,30.13,WSW,248,4.9,4.9,71,0.00,,---,0.00,VWS V13.00,2013-01-04 09:03:00,
2013-01-04 04:08:00,31.6,23.3,30.13,NNW,338,0.0,4.9,71,0.00,,---,0.00,VWS V13.00,2013-01-04 09:08:00,
2013-01-04 04:13:00,31.6,23.3,30.14,NW,315,8.5,8.5,71,0.00,,---,0.00,VWS V13.00,2013-01-04 09:13:00,
2013-01-04 04:18:00,31.8,23.5,30.13,WSW,248,0.0,8.5,71,0.00,,---,0.00,VWS V13.00,2013-01-04 09:18:00,
2013-01-04 04:23:00,31.8,23.5,30.14,NNE,22,0.0,1.7,71,0.00,,---,0.00,VWS V13.00,2013-01-04 09:23:00,
2013-01-04 04:28:00,31.8,23.5,30.13,West,270,2.4,2.4,71,0.00,,---,0.00,VWS V13.00,2013-01-04 09:28:00,
2013-01-04 04:33:00,31.8,23.5,30.13,WNW,292,3.3,3.3,71,0.00,,---,0.00,VWS V13.00,2013-01-04 09:33:00,
2013-01-04 04:38:00,31.8,23.5,30.13,WNW,292,0.0,3.3,71,0.00,,---,0.00,VWS V13.00,2013-01-04 09:38:00,
2013-01-04 04:43:00,31.8,23.1,30.13,NW,315,4.9,4.9,70,0.00,,---,0.00,VWS V13.00,2013-01-04 09:43:00,
2013-01-04 04:48:00,32.0,23.3,30.14,West,270,0.0,4.9,70,0.00,,---,0.00,VWS V13.00,2013-01-04 09:48:00,
2013-01-04 04:53:00,31.8,23.1,30.14,NNW,338,3.8,4.9,70,0.00,,---,0.00,VWS V13.00,2013-01-04 09:53:00,
2013-01-04 04:58:00,31.8,23.1,30.14,NNW,338,0.0,4.9,70,0.00,,---,0.00,VWS V13.00,2013-01-04 09:58:00,
2013-01-04 05:03:00,31.8,23.1,30.14,WNW,292,1.7,1.7,70,0.00,,---,0.00,VWS V13.00,2013-01-04 10:03:00,
2013-01-04 05:08:00,31.8,23.1,30.14,WSW,248,0.0,2.2,70,0.00,,---,0.00,VWS V13.00,2013-01-04 10:08:00,
2013-01-04 05:13:00,31.8,23.1,30.13,NW,315,2.9,2.9,70,0.00,,---,0.00,VWS V13.00,2013-01-04 10:13:00,
2013-01-04 05:18:00,31.8,23.1,30.14,WNW,292,0.0,2.9,70,0.00,,---,0.00,VWS V13.00,2013-01-04 10:18:00,
2013-01-04 05:23:00,31.8,23.1,30.14,NW,315,0.0,0.0,70,0.00,,---,0.00,VWS V13.00,2013-01-04 10:23:00,
2013-01-04 05:28:00,31.8,23.1,30.14,West,270,1.7,1.7,70,0.00,,---,0.00,VWS V13.00,2013-01-04 10:28:00,
2013-01-04 05:33:00,31.8,23.1,30.14,NNW,338,3.3,3.3,70,0.00,,---,0.00,VWS V13.00,2013-01-04 10:33:00,
2013-01-04 05:38:00,31.8,23.1,30.14,WSW,248,0.0,3.3,70,0.00,,---,0.00,VWS V13.00,2013-01-04 10:38:00,
2013-01-04 05:43:00,31.6,23.0,30.14,West,270,2.0,2.0,70,0.00,,---,0.00,VWS V13.00,2013-01-04 10:43:00,
2013-01-04 05:48:00,31.6,23.0,30.15,NNW,338,2.6,7.1,70,0.00,,---,0.00,VWS V13.00,2013-01-04 10:48:00,
2013-01-04 05:53:00,31.6,22.6,30.14,NW,315,0.0,7.1,69,0.00,,---,0.00,VWS V13.00,2013-01-04 10:53:00,
2013-01-04 05:58:00,31.6,22.6,30.14,WNW,292,1.7,7.1,69,0.00,,---,0.00,VWS V13.00,2013-01-04 10:58:00,
2013-01-04 06:03:00,31.6,22.6,30.14,WNW,292,3.1,3.1,69,0.00,,---,0.00,VWS V13.00,2013-01-04 11:03:00,
2013-01-04 06:08:00,31.6,22.6,30.14,NNW,338,1.5,3.1,69,0.00,,---,0.00,VWS V13.00,2013-01-04 11:08:00,
2013-01-04 06:13:00,31.6,22.6,30.15,West,270,0.0,3.1,69,0.00,,---,0.00,VWS V13.00,2013-01-04 11:13:00,
2013-01-04 06:18:00,31.6,22.6,30.15,NNW,338,0.0,3.1,69,0.00,,---,0.00,VWS V13.00,2013-01-04 11:18:00,
2013-01-04 06:23:00,31.6,22.6,30.14,NW,315,0.0,0.0,69,0.00,,---,0.00,VWS V13.00,2013-01-04 11:23:00,
2013-01-04 06:28:00,31.6,22.6,30.15,SW,225,0.0,6.4,69,0.00,,---,0.00,VWS V13.00,2013-01-04 11:28:00,
2013-01-04 06:33:00,31.6,22.6,30.15,West,270,0.0,6.4,69,0.00,,---,0.00,VWS V13.00,2013-01-04 11:33:00,
2013-01-04 06:38:00,31.6,22.6,30.15,NW,315,2.4,6.4,69,0.00,,---,0.00,VWS V13.00,2013-01-04 11:38:00,
2013-01-04 06:43:00,31.6,22.6,30.16,West,270,2.2,2.2,69,0.00,,---,0.00,VWS V13.00,2013-01-04 11:43:00,
2013-01-04 06:48:00,31.6,22.6,30.16,WNW,292,0.0,2.2,69,0.00,,---,0.00,VWS V13.00,2013-01-04 11:48:00,
2013-01-04 06:53:00,31.6,22.3,30.16,NW,315,0.0,2.2,68,0.00,,---,0.00,VWS V13.00,2013-01-04 11:53:00,
2013-01-04 06:58:00,31.6,22.3,30.15,NNW,338,2.4,2.4,68,0.00,,---,0.00,VWS V13.00,2013-01-04 11:58:00,
2013-01-04 07:03:00,31.6,22.3,30.16,South,180,0.0,0.0,68,0.00,,---,0.00,VWS V13.00,2013-01-04 12:03:00,
2013-01-04 07:08:00,31.6,22.3,30.16,SSW,202,0.0,1.1,68,0.00,,---,0.00,VWS V13.00,2013-01-04 12:08:00,
2013-01-04 07:13:00,31.6,22.6,30.16,NNW,338,4.9,4.9,69,0.00,,---,0.00,VWS V13.00,2013-01-04 12:13:00,
2013-01-04 07:18:00,31.6,22.6,30.16,WNW,292,0.0,4.9,69,0.00,,---,0.00,VWS V13.00,2013-01-04 12:18:00,
2013-01-04 07:23:00,31.6,22.6,30.16,NW,315,0.0,0.0,69,0.00,,---,0.00,VWS V13.00,2013-01-04 12:23:00,
2013-01-04 07:28:00,31.6,22.6,30.16,WNW,292,1.1,1.1,69,0.00,,---,0.00,VWS V13.00,2013-01-04 12:28:00,
2013-01-04 07:33:00,31.6,22.6,30.16,West,270,0.0,1.1,69,0.00,,---,0.00,VWS V13.00,2013-01-04 12:33:00,
2013-01-04 07:38:00,31.6,22.6,30.16,WSW,248,0.0,3.5,69,0.00,,---,0.00,VWS V13.00,2013-01-04 12:38:00,
2013-01-04 07:43:00,31.6,22.3,30.16,NNW,338,6.7,6.7,68,0.00,,---,0.00,VWS V13.00,2013-01-04 12:43:00,
2013-01-04 07:48:00,31.6,22.3,30.16,NW,315,1.3,6.7,68,0.00,,---,0.00,VWS V13.00,2013-01-04 12:48:00,
2013-01-04 07:53:00,31.8,22.5,30.16,NNE,22,0.0,6.7,68,0.00,,---,0.00,VWS V13.00,2013-01-04 12:53:00,
2013-01-04 07:58:00,32.1,22.8,30.16,SW,225,0.0,6.7,68,0.00,,---,0.00,VWS V13.00,2013-01-04 12:58:00,
2013-01-04 08:03:00,32.1,22.4,30.16,NW,315,3.5,3.5,67,0.00,,---,0.00,VWS V13.00,2013-01-04 13:03:00,
2013-01-04 08:08:00,32.5,22.8,30.15,NW,315,4.9,4.9,67,0.00,,---,0.00,VWS V13.00,2013-01-04 13:08:00,
2013-01-04 08:13:00,32.7,23.0,30.15,NNW,338,2.4,4.9,67,0.00,,---,0.00,VWS V13.00,2013-01-04 13:13:00,
2013-01-04 08:18:00,33.2,23.5,30.15,WNW,292,6.0,6.0,67,0.00,,---,0.00,VWS V13.00,2013-01-04 13:18:00,
2013-01-04 08:23:00,33.9,24.1,30.15,NNW,338,5.1,5.1,67,0.00,,---,0.00,VWS V13.00,2013-01-04 13:23:00,
2013-01-04 08:28:00,34.5,24.7,30.15,West,270,1.1,5.1,67,0.00,,---,0.00,VWS V13.00,2013-01-04 13:28:00,
2013-01-04 08:33:00,35.2,25.4,30.15,NNW,338,2.4,5.5,67,0.00,,---,0.00,VWS V13.00,2013-01-04 13:33:00,
2013-01-04 08:38:00,35.7,25.1,30.15,NNW,338,1.1,8.9,65,0.00,,---,0.00,VWS V13.00,2013-01-04 13:38:00,
2013-01-04 08:43:00,36.3,26.0,30.16,West,270,0.0,0.0,66,0.00,,---,0.00,VWS V13.00,2013-01-04 13:43:00,
2013-01-04 08:48:00,36.6,26.0,30.16,WSW,248,2.6,2.6,65,0.00,,---,0.00,VWS V13.00,2013-01-04 13:48:00,
2013-01-04 08:53:00,37.4,26.7,30.16,NW,315,1.5,2.6,65,0.00,,---,0.00,VWS V13.00,2013-01-04 13:53:00,
2013-01-04 08:58:00,37.9,27.2,30.15,WNW,292,4.0,4.9,65,0.00,,---,0.00,VWS V13.00,2013-01-04 13:58:00,
2013-01-04 09:03:00,38.1,27.0,30.15,West,270,1.5,1.5,64,0.00,,---,0.00,VWS V13.00,2013-01-04 14:03:00,
2013-01-04 09:08:00,38.4,26.9,30.15,NW,315,2.9,2.9,63,0.00,,---,0.00,VWS V13.00,2013-01-04 14:08:00,
2013-01-04 09:13:00,38.4,26.5,30.15,West,270,6.7,6.7,62,0.00,,---,0.00,VWS V13.00,2013-01-04 14:13:00,
2013-01-04 09:18:00,38.6,26.7,30.15,South,180,0.0,6.7,62,0.00,,---,0.00,VWS V13.00,2013-01-04 14:18:00,
2013-01-04 09:23:00,38.8,26.5,30.15,WNW,292,4.9,4.9,61,0.00,,---,0.00,VWS V13.00,2013-01-04 14:23:00,
2013-01-04 09:28:00,39.0,26.3,30.15,West,270,1.5,4.9,60,0.00,,---,0.00,VWS V13.00,2013-01-04 14:28:00,
2013-01-04 09:33:00,38.8,25.7,30.15,NW,315,1.3,4.9,59,0.00,,---,0.00,VWS V13.00,2013-01-04 14:33:00,
2013-01-04 09:38:00,39.0,25.9,30.15,West,270,1.7,4.9,59,0.00,,---,0.00,VWS V13.00,2013-01-04 14:38:00,
2013-01-04 09:43:00,39.0,25.5,30.15,SW,225,5.8,5.8,58,0.00,,---,0.00,VWS V13.00,2013-01-04 14:43:00,
2013-01-04 09:48:00,39.0,25.5,30.16,West,270,0.0,6.4,58,0.00,,---,0.00,VWS V13.00,2013-01-04 14:48:00,
2013-01-04 09:53:00,39.0,25.1,30.15,SW,225,5.8,6.4,57,0.00,,---,0.00,VWS V13.00,2013-01-04 14:53:00,
2013-01-04 09:58:00,39.3,25.4,30.15,NW,315,9.1,9.1,57,0.00,,---,0.00,VWS V13.00,2013-01-04 14:58:00,
2013-01-04 10:03:00,39.5,25.1,30.15,West,270,1.7,11.6,56,0.00,,---,0.00,VWS V13.00,2013-01-04 15:03:00,
2013-01-04 10:08:00,39.7,25.3,30.15,WNW,292,8.2,11.6,56,0.00,,---,0.00,VWS V13.00,2013-01-04 15:08:00,
2013-01-04 10:13:00,39.9,25.1,30.15,WNW,292,12.3,12.3,55,0.00,,---,0.00,VWS V13.00,2013-01-04 15:13:00,
2013-01-04 10:18:00,40.1,25.2,30.15,NNW,338,4.2,12.3,55,0.00,,---,0.00,VWS V13.00,2013-01-04 15:18:00,
2013-01-04 10:23:00,40.2,25.3,30.15,WNW,292,2.2,6.2,55,0.00,,---,0.00,VWS V13.00,2013-01-04 15:23:00,
2013-01-04 10:28:00,40.2,25.3,30.15,West,270,7.1,7.1,55,0.00,,---,0.00,VWS V13.00,2013-01-04 15:28:00,
2013-01-04 10:33:00,40.2,25.3,30.14,NW,315,3.5,7.1,55,0.00,,---,0.00,VWS V13.00,2013-01-04 15:33:00,
2013-01-04 10:38:00,40.2,25.3,30.14,WNW,292,6.2,7.1,55,0.00,,---,0.00,VWS V13.00,2013-01-04 15:38:00,
2013-01-04 10:43:00,40.2,25.3,30.14,NNE,22,7.1,7.1,55,0.00,,---,0.00,VWS V13.00,2013-01-04 15:43:00,
2013-01-04 10:48:00,40.1,25.2,30.13,NE,45,8.2,8.2,55,0.00,,---,0.00,VWS V13.00,2013-01-04 15:48:00,
2013-01-04 10:53:00,39.9,25.1,30.13,NNW,338,13.8,13.8,55,0.00,,---,0.00,VWS V13.00,2013-01-04 15:53:00,
2013-01-04 10:58:00,39.9,25.1,30.13,West,270,8.2,13.8,55,0.00,,---,0.00,VWS V13.00,2013-01-04 15:58:00,
2013-01-04 11:03:00,39.9,25.1,30.13,NNW,338,6.2,8.2,55,0.00,,---,0.00,VWS V13.00,2013-01-04 16:03:00,
2013-01-04 11:08:00,39.7,24.9,30.13,WNW,292,5.8,8.2,55,0.00,,---,0.00,VWS V13.00,2013-01-04 16:08:00,
2013-01-04 11:13:00,39.7,24.9,30.13,West,270,2.9,8.2,55,0.00,,---,0.00,VWS V13.00,2013-01-04 16:13:00,
2013-01-04 11:18:00,39.7,24.9,30.13,NNW,338,7.3,8.2,55,0.00,,---,0.00,VWS V13.00,2013-01-04 16:18:00,
2013-01-04 11:23:00,39.5,24.7,30.12,NNE,22,2.4,2.9,55,0.00,,---,0.00,VWS V13.00,2013-01-04 16:23:00,
2013-01-04 11:28:00,39.5,24.2,30.11,NW,315,4.6,7.3,54,0.00,,---,0.00,VWS V13.00,2013-01-04 16:28:00,
2013-01-04 11:33:00,39.5,24.2,30.11,NNW,338,4.0,7.3,54,0.00,,---,0.00,VWS V13.00,2013-01-04 16:33:00,
2013-01-04 11:38:00,39.7,24.9,30.11,NW,315,0.0,7.3,55,0.00,,---,0.00,VWS V13.00,2013-01-04 16:38:00,
2013-01-04 11:43:00,39.7,24.4,30.11,North,0,0.6,3.5,54,0.00,,---,0.00,VWS V13.00,2013-01-04 16:43:00,
2013-01-04 11:48:00,39.7,24.4,30.12,West,270,7.3,7.3,54,0.00,,---,0.00,VWS V13.00,2013-01-04 16:48:00,
2013-01-04 11:53:00,39.7,24.4,30.11,NW,315,9.8,9.8,54,0.00,,---,0.00,VWS V13.00,2013-01-04 16:53:00,
2013-01-04 11:58:00,39.7,24.4,30.11,North,0,1.7,9.8,54,0.00,,---,0.00,VWS V13.00,2013-01-04 16:58:00,
2013-01-04 12:03:00,39.7,24.4,30.11,WSW,248,2.9,2.9,54,0.00,,---,0.00,VWS V13.00,2013-01-04 17:03:00,
2013-01-04 12:08:00,39.7,24.4,30.11,NNW,338,5.3,10.5,54,0.00,,---,0.00,VWS V13.00,2013-01-04 17:08:00,
2013-01-04 12:13:00,39.7,24.4,30.10,SW,225,5.3,10.5,54,0.00,,---,0.00,VWS V13.00,2013-01-04 17:13:00,
2013-01-04 12:18:00,39.9,24.6,30.10,NNW,338,5.3,10.5,54,0.00,,---,0.00,VWS V13.00,2013-01-04 17:18:00,
2013-01-04 12:23:00,39.7,24.4,30.10,NW,315,5.3,5.3,54,0.00,,---,0.00,VWS V13.00,2013-01-04 17:23:00,
2013-01-04 12:28:00,39.5,24.2,30.10,West,270,6.2,6.2,54,0.00,,---,0.00,VWS V13.00,2013-01-04 17:28:00,
2013-01-04 12:33:00,39.3,24.1,30.10,NNW,338,13.8,13.8,54,0.00,,---,0.00,VWS V13.00,2013-01-04 17:33:00,
2013-01-04 12:38:00,39.3,24.1,30.09,NW,315,0.0,13.8,54,0.00,,---,0.00,VWS V13.00,2013-01-04 17:38:00,
2013-01-04 12:43:00,39.3,24.1,30.09,WNW,292,0.0,1.3,54,0.00,,---,0.00,VWS V13.00,2013-01-04 17:43:00,
2013-01-04 12:48:00,39.3,24.1,30.09,WNW,292,5.1,5.1,54,0.00,,---,0.00,VWS V13.00,2013-01-04 17:48:00,
2013-01-04 12:53:00,39.3,24.1,30.09,SW,225,4.6,6.9,54,0.00,,---,0.00,VWS V13.00,2013-01-04 17:53:00,
2013-01-04 12:58:00,39.3,24.1,30.08,NW,315,3.8,7.6,54,0.00,,---,0.00,VWS V13.00,2013-01-04 17:58:00,
2013-01-04 13:03:00,39.3,24.1,30.08,NNW,338,6.7,6.7,54,0.00,,---,0.00,VWS V13.00,2013-01-04 18:03:00,
2013-01-04 13:08:00,39.3,24.1,30.08,West,270,2.9,6.9,54,0.00,,---,0.00,VWS V13.00,2013-01-04 18:08:00,
2013-01-04 13:13:00,39.5,24.2,30.07,WSW,248,5.8,6.9,54,0.00,,---,0.00,VWS V13.00,2013-01-04 18:13:00,
2013-01-04 13:18:00,39.5,24.2,30.07,WNW,292,2.9,9.8,54,0.00,,---,0.00,VWS V13.00,2013-01-04 18:18:00,
2013-01-04 13:23:00,39.7,24.4,30.07,West,270,9.8,9.8,54,0.00,,---,0.00,VWS V13.00,2013-01-04 18:23:00,
2013-01-04 13:28:00,39.9,24.6,30.06,SW,225,3.1,9.8,54,0.00,,---,0.00,VWS V13.00,2013-01-04 18:28:00,
2013-01-04 13:33:00,39.9,24.6,30.06,NW,315,5.5,9.8,54,0.00,,---,0.00,VWS V13.00,2013-01-04 18:33:00,
2013-01-04 13:38:00,39.9,24.6,30.05,SSW,202,3.3,11.8,54,0.00,,---,0.00,VWS V13.00,2013-01-04 18:38:00,
2013-01-04 13:43:00,39.9,24.6,30.05,West,270,5.8,5.8,54,0.00,,---,0.00,VWS V13.00,2013-01-04 18:43:00,
2013-01-04 13:48:00,39.9,24.2,30.06,West,270,2.4,5.8,53,0.00,,---,0.00,VWS V13.00,2013-01-04 18:48:00,
2013-01-04 13:53:00,39.9,24.6,30.05,WSW,248,6.2,6.2,54,0.00,,---,0.00,VWS V13.00,2013-01-04 18:53:00,
2013-01-04 13:58:00,39.9,24.6,30.05,West,270,5.5,6.2,54,0.00,,---,0.00,VWS V13.00,2013-01-04 18:58:00,
2013-01-04 14:03:00,40.2,24.9,30.04,East,90,0.0,0.0,54,0.00,,---,0.00,VWS V13.00,2013-01-04 19:03:00,
2013-01-04 14:08:00,41.0,25.6,30.05,West,270,0.6,13.4,54,0.00,,---,0.00,VWS V13.00,2013-01-04 19:08:00,
2013-01-04 14:13:00,41.1,25.3,30.04,NW,315,9.3,13.4,53,0.00,,---,0.00,VWS V13.00,2013-01-04 19:13:00,
2013-01-04 14:18:00,41.5,25.7,30.04,SSW,202,1.5,13.4,53,0.00,,---,0.00,VWS V13.00,2013-01-04 19:18:00,
2013-01-04 14:23:00,41.7,25.9,30.04,West,270,7.8,7.8,53,0.00,,---,0.00,VWS V13.00,2013-01-04 19:23:00,
2013-01-04 14:28:00,41.9,25.6,30.04,NNW,338,5.3,7.8,52,0.00,,---,0.00,VWS V13.00,2013-01-04 19:28:00,
2013-01-04 14:33:00,41.9,25.6,30.04,West,270,1.1,7.8,52,0.00,,---,0.00,VWS V13.00,2013-01-04 19:33:00,
2013-01-04 14:38:00,41.7,25.4,30.03,NNW,338,4.4,7.8,52,0.00,,---,0.00,VWS V13.00,2013-01-04 19:38:00,
2013-01-04 14:43:00,41.7,25.9,30.03,ESE,112,0.0,2.2,53,0.00,,---,0.00,VWS V13.00,2013-01-04 19:43:00,
2013-01-04 14:48:00,41.7,25.4,30.04,WNW,292,4.0,5.5,52,0.00,,---,0.00,VWS V13.00,2013-01-04 19:48:00,
2013-01-04 14:53:00,41.7,25.4,30.04,SSW,202,0.0,8.2,52,0.00,,---,0.00,VWS V13.00,2013-01-04 19:53:00,
2013-01-04 14:58:00,41.7,25.4,30.04,SE,135,3.8,8.2,52,0.00,,---,0.00,VWS V13.00,2013-01-04 19:58:00,
2013-01-04 15:03:00,41.7,25.4,30.04,SW,225,6.4,6.4,52,0.00,,---,0.00,VWS V13.00,2013-01-04 20:03:00,
2013-01-04 15:08:00,41.5,25.2,30.04,SW,225,4.0,6.4,52,0.00,,---,0.00,VWS V13.00,2013-01-04 20:08:00,
2013-01-04 15:13:00,41.7,25.9,30.04,NW,315,4.0,14.0,53,0.00,,---,0.00,VWS V13.00,2013-01-04 20:13:00,
2013-01-04 15:18:00,41.5,25.7,30.03,West,270,6.0,14.0,53,0.00,,---,0.00,VWS V13.00,2013-01-04 20:18:00,
2013-01-04 15:23:00,41.5,25.7,30.04,WNW,292,0.8,0.8,53,0.00,,---,0.00,VWS V13.00,2013-01-04 20:23:00,
2013-01-04 15:28:00,41.3,25.5,30.04,NNW,338,2.4,5.3,53,0.00,,---,0.00,VWS V13.00,2013-01-04 20:28:00,
2013-01-04 15:33:00,41.3,25.5,30.05,WNW,292,4.0,5.3,53,0.00,,---,0.00,VWS V13.00,2013-01-04 20:33:00,
2013-01-04 15:38:00,41.1,25.3,30.05,WSW,248,6.4,7.1,53,0.00,,---,0.00,VWS V13.00,2013-01-04 20:38:00,
2013-01-04 15:43:00,41.3,25.9,30.04,West,270,6.4,6.4,54,0.00,,---,0.00,VWS V13.00,2013-01-04 20:43:00,
2013-01-04 15:48:00,41.1,25.3,30.05,NW,315,4.4,6.4,53,0.00,,---,0.00,VWS V13.00,2013-01-04 20:48:00,
2013-01-04 15:53:00,40.8,25.5,30.04,NW,315,6.0,6.4,54,0.00,,---,0.00,VWS V13.00,2013-01-04 20:53:00,
2013-01-04 15:58:00,40.8,25.5,30.04,SW,225,0.0,6.4,54,0.00,,---,0.00,VWS V13.00,2013-01-04 20:58:00,
2013-01-04 16:03:00,40.4,25.1,30.04,WSW,248,0.0,7.8,54,0.00,,---,0.00,VWS V13.00,2013-01-04 21:03:00,
2013-01-04 16:08:00,40.2,25.3,30.04,West,270,2.2,7.8,55,0.00,,---,0.00,VWS V13.00,2013-01-04 21:08:00,
2013-01-04 16:13:00,40.2,25.3,30.04,WNW,292,0.0,7.8,55,0.00,,---,0.00,VWS V13.00,2013-01-04 21:13:00,
2013-01-04 16:18:00,39.9,25.1,30.04,NNW,338,0.0,7.8,55,0.00,,---,0.00,VWS V13.00,2013-01-04 21:18:00,
2013-01-04 16:23:00,39.7,24.9,30.04,SW,225,0.0,0.0,55,0.00,,---,0.00,VWS V13.00,2013-01-04 21:23:00,
2013-01-04 16:28:00,39.5,24.7,30.03,WSW,248,0.0,3.1,55,0.00,,---,0.00,VWS V13.00,2013-01-04 21:28:00,
2013-01-04 16:33:00,39.3,24.5,30.03,WNW,292,2.2,3.8,55,0.00,,---,0.00,VWS V13.00,2013-01-04 21:33:00,
2013-01-04 16:38:00,39.0,24.6,30.03,WNW,292,0.0,3.8,56,0.00,,---,0.00,VWS V13.00,2013-01-04 21:38:00,
2013-01-04 16:43:00,39.0,24.6,30.03,West,270,0.0,0.0,56,0.00,,---,0.00,VWS V13.00,2013-01-04 21:43:00,
2013-01-04 16:48:00,38.8,24.5,30.03,SW,225,1.5,2.0,56,0.00,,---,0.00,VWS V13.00,2013-01-04 21:48:00,
2013-01-04 16:53:00,38.4,24.5,30.03,West,270,0.0,4.6,57,0.00,,---,0.00,VWS V13.00,2013-01-04 21:53:00,
2013-01-04 16:58:00,38.3,24.4,30.03,NW,315,4.6,4.6,57,0.00,,---,0.00,VWS V13.00,2013-01-04 21:58:00,
2013-01-04 17:03:00,38.1,24.6,30.03,WNW,292,0.0,4.2,58,0.00,,---,0.00,VWS V13.00,2013-01-04 22:03:00,
2013-01-04 17:08:00,37.7,24.3,30.03,SW,225,0.0,4.2,58,0.00,,---,0.00,VWS V13.00,2013-01-04 22:08:00,
2013-01-04 17:13:00,37.5,24.1,30.03,WSW,248,0.0,4.2,58,0.00,,---,0.00,VWS V13.00,2013-01-04 22:13:00,
2013-01-04 17:18:00,37.2,24.2,30.03,WNW,292,1.7,4.2,59,0.00,,---,0.00,VWS V13.00,2013-01-04 22:18:00,
2013-01-04 17:23:00,37.2,24.6,30.03,West,270,0.0,5.5,60,0.00,,---,0.00,VWS V13.00,2013-01-04 22:23:00,
2013-01-04 17:28:00,37.0,24.4,30.03,SW,225,0.0,5.5,60,0.00,,---,0.00,VWS V13.00,2013-01-04 22:28:00,
2013-01-04 17:33:00,37.0,24.8,30.03,SSW,202,0.0,5.5,61,0.00,,---,0.00,VWS V13.00,2013-01-04 22:33:00,
2013-01-04 17:38:00,36.8,24.6,30.03,West,270,0.0,5.5,61,0.00,,---,0.00,VWS V13.00,2013-01-04 22:38:00,
2013-01-04 17:43:00,36.6,24.4,30.03,SW,225,0.0,0.0,61,0.00,,---,0.00,VWS V13.00,2013-01-04 22:43:00,
2013-01-04 17:48:00,36.6,24.4,30.03,SW,225,0.0,0.0,61,0.00,,---,0.00,VWS V13.00,2013-01-04 22:48:00,
2013-01-04 17:53:00,36.3,24.1,30.03,WSW,248,0.0,0.0,61,0.00,,---,0.00,VWS V13.00,2013-01-04 22:53:00,
2013-01-04 17:58:00,36.3,24.1,30.03,WSW,248,0.0,0.0,61,0.00,,---,0.00,VWS V13.00,2013-01-04 22:58:00,
2013-01-04 18:03:00,36.1,24.4,30.03,SSW,202,1.3,1.3,62,0.00,,---,0.00,VWS V13.00,2013-01-04 23:03:00,
2013-01-04 18:08:00,36.1,24.4,30.03,WSW,248,2.0,2.0,62,0.00,,---,0.00,VWS V13.00,2013-01-04 23:08:00,
2013-01-04 18:13:00,36.1,24.4,30.04,SW,225,2.2,2.2,62,0.00,,---,0.00,VWS V13.00,2013-01-04 23:13:00,
2013-01-04 18:18:00,36.1,24.7,30.04,WSW,248,2.6,4.9,63,0.00,,---,0.00,VWS V13.00,2013-01-04 23:18:00,
2013-01-04 18:23:00,35.9,24.5,30.04,SSW,202,0.0,1.1,63,0.00,,---,0.00,VWS V13.00,2013-01-04 23:23:00,
2013-01-04 18:28:00,35.9,24.5,30.03,SW,225,0.0,1.1,63,0.00,,---,0.00,VWS V13.00,2013-01-04 23:28:00,
2013-01-04 18:33:00,35.7,24.7,30.03,WNW,292,0.0,1.7,64,0.00,,---,0.00,VWS V13.00,2013-01-04 23:33:00,
2013-01-04 18:38:00,35.7,24.7,30.03,SW,225,0.0,1.7,64,0.00,,---,0.00,VWS V13.00,2013-01-04 23:38:00,
2013-01-04 18:43:00,35.7,24.7,30.03,WNW,292,2.2,4.0,64,0.00,,---,0.00,VWS V13.00,2013-01-04 23:43:00,
2013-01-04 18:48:00,35.7,24.7,30.04,WNW,292,6.2,6.2,64,0.00,,---,0.00,VWS V13.00,2013-01-04 23:48:00,
2013-01-04 18:53:00,35.7,24.7,30.04,WNW,292,0.4,6.2,64,0.00,,---,0.00,VWS V13.00,2013-01-04 23:53:00,
2013-01-04 18:58:00,35.7,24.7,30.04,WNW,292,2.0,6.2,64,0.00,,---,0.00,VWS V13.00,2013-01-04 23:58:00,
2013-01-04 19:03:00,35.7,24.7,30.04,NNE,22,0.0,0.0,64,0.00,,---,0.00,VWS V13.00,2013-01-05 00:03:00,
2013-01-04 19:08:00,35.7,24.7,30.04,WSW,248,3.3,3.3,64,0.00,,---,0.00,VWS V13.00,2013-01-05 00:08:00,
2013-01-04 19:13:00,35.7,24.7,30.05,West,270,2.2,3.3,64,0.00,,---,0.00,VWS V13.00,2013-01-05 00:13:00,
2013-01-04 19:18:00,35.7,25.1,30.05,SSW,202,0.0,3.3,65,0.00,,---,0.00,VWS V13.00,2013-01-05 00:18:00,
2013-01-04 19:23:00,35.6,25.0,30.06,SW,225,0.0,0.0,65,0.00,,---,0.00,VWS V13.00,2013-01-05 00:23:00,
2013-01-04 19:28:00,35.4,24.8,30.06,WNW,292,4.2,4.2,65,0.00,,---,0.00,VWS V13.00,2013-01-05 00:28:00,
2013-01-04 19:33:00,35.4,24.8,30.06,WSW,248,0.0,4.2,65,0.00,,---,0.00,VWS V13.00,2013-01-05 00:33:00,
2013-01-04 19:38:00,35.4,24.8,30.06,WSW,248,0.0,4.2,65,0.00,,---,0.00,VWS V13.00,2013-01-05 00:38:00,
2013-01-04 19:43:00,35.4,24.8,30.06,West,270,0.0,0.0,65,0.00,,---,0.00,VWS V13.00,2013-01-05 00:43:00,
2013-01-04 19:48:00,35.4,24.8,30.06,West,270,2.9,2.9,65,0.00,,---,0.00,VWS V13.00,2013-01-05 00:48:00,
2013-01-04 19:53:00,35.4,24.8,30.06,SW,225,1.7,5.1,65,0.00,,---,0.00,VWS V13.00,2013-01-05 00:53:00,
2013-01-04 19:58:00,35.4,24.8,30.06,WNW,292,1.3,5.1,65,0.00,,---,0.00,VWS V13.00,2013-01-05 00:58:00,
2013-01-04 20:03:00,35.4,24.8,30.06,SW,225,6.0,6.0,65,0.00,,---,0.00,VWS V13.00,2013-01-05 01:03:00,
2013-01-04 20:08:00,35.4,24.5,30.06,West,270,2.0,6.0,64,0.00,,---,0.00,VWS V13.00,2013-01-05 01:08:00,
2013-01-04 20:13:00,35.4,24.5,30.06,WNW,292,0.0,6.0,64,0.00,,---,0.00,VWS V13.00,2013-01-05 01:13:00,
2013-01-04 20:18:00,35.2,24.3,30.06,SW,225,0.0,6.0,64,0.00,,---,0.00,VWS V13.00,2013-01-05 01:18:00,
2013-01-04 20:23:00,35.2,24.3,30.06,SSE,158,0.0,0.0,64,0.00,,---,0.00,VWS V13.00,2013-01-05 01:23:00,
2013-01-04 20:28:00,35.2,24.3,30.06,WNW,292,4.2,4.2,64,0.00,,---,0.00,VWS V13.00,2013-01-05 01:28:00,
2013-01-04 20:33:00,35.2,24.3,30.07,North,0,10.0,10.0,64,0.00,,---,0.00,VWS V13.00,2013-01-05 01:33:00,
2013-01-04 20:38:00,35.2,24.3,30.07,WNW,292,2.4,10.0,64,0.00,,---,0.00,VWS V13.00,2013-01-05 01:38:00,
2013-01-04 20:43:00,35.4,24.5,30.07,West,270,7.1,7.1,64,0.00,,---,0.00,VWS V13.00,2013-01-05 01:43:00,
2013-01-04 20:48:00,35.2,23.9,30.07,WSW,248,2.4,7.1,63,0.00,,---,0.00,VWS V13.00,2013-01-05 01:48:00,
2013-01-04 20:53:00,35.2,23.9,30.07,SSW,202,6.0,7.1,63,0.00,,---,0.00,VWS V13.00,2013-01-05 01:53:00,
2013-01-04 20:58:00,35.2,23.9,30.07,SSW,202,4.4,7.1,63,0.00,,---,0.00,VWS V13.00,2013-01-05 01:58:00,
2013-01-04 21:03:00,35.2,23.9,30.07,West,270,3.8,3.8,63,0.00,,---,0.00,VWS V13.00,2013-01-05 02:03:00,
2013-01-04 21:08:00,35.2,23.9,30.07,SW,225,1.3,3.8,63,0.00,,---,0.00,VWS V13.00,2013-01-05 02:08:00,
2013-01-04 21:13:00,35.2,23.9,30.07,SSE,158,0.0,3.8,63,0.00,,---,0.00,VWS V13.00,2013-01-05 02:13:00,
2013-01-04 21:18:00,34.8,23.9,30.07,WSW,248,0.0,6.2,64,0.00,,---,0.00,VWS V13.00,2013-01-05 02:18:00,
2013-01-04 21:23:00,34.8,23.9,30.07,SW,225,0.0,1.5,64,0.00,,---,0.00,VWS V13.00,2013-01-05 02:23:00,
2013-01-04 21:28:00,34.8,23.9,30.07,WNW,292,0.0,5.1,64,0.00,,---,0.00,VWS V13.00,2013-01-05 02:28:00,
2013-01-04 21:33:00,34.8,23.9,30.08,West,270,0.8,7.6,64,0.00,,---,0.00,VWS V13.00,2013-01-05 02:33:00,
2013-01-04 21:38:00,34.8,23.9,30.08,WSW,248,0.0,7.6,64,0.00,,---,0.00,VWS V13.00,2013-01-05 02:38:00,
2013-01-04 21:43:00,34.8,23.9,30.08,SSW,202,0.0,0.0,64,0.00,,---,0.00,VWS V13.00,2013-01-05 02:43:00,
2013-01-04 21:48:00,34.8,23.9,30.08,SW,225,0.0,1.3,64,0.00,,---,0.00,VWS V13.00,2013-01-05 02:48:00,
2013-01-04 21:53:00,34.8,23.9,30.08,West,270,2.9,2.9,64,0.00,,---,0.00,VWS V13.00,2013-01-05 02:53:00,
2013-01-04 21:58:00,34.8,24.2,30.08,SW,225,5.1,6.0,65,0.00,,---,0.00,VWS V13.00,2013-01-05 02:58:00,
2013-01-04 22:03:00,34.7,24.1,30.08,West,270,5.1,5.1,65,0.00,,---,0.00,VWS V13.00,2013-01-05 03:03:00,
2013-01-04 22:08:00,34.7,24.1,30.08,NW,315,0.8,5.1,65,0.00,,---,0.00,VWS V13.00,2013-01-05 03:08:00,
2013-01-04 22:13:00,34.7,24.1,30.08,SSE,158,4.6,5.1,65,0.00,,---,0.00,VWS V13.00,2013-01-05 03:13:00,
2013-01-04 22:18:00,34.7,24.1,30.08,WSW,248,1.5,6.7,65,0.00,,---,0.00,VWS V13.00,2013-01-05 03:18:00,
2013-01-04 22:23:00,34.7,24.1,30.09,SSW,202,0.0,2.0,65,0.00,,---,0.00,VWS V13.00,2013-01-05 03:23:00,
2013-01-04 22:28:00,34.7,24.1,30.09,WSW,248,2.4,2.4,65,0.00,,---,0.00,VWS V13.00,2013-01-05 03:28:00,
2013-01-04 22:33:00,34.5,24.0,30.08,West,270,4.9,4.9,65,0.00,,---,0.00,VWS V13.00,2013-01-05 03:33:00,
2013-01-04 22:38:00,34.5,24.0,30.09,SW,225,0.0,4.9,65,0.00,,---,0.00,VWS V13.00,2013-01-05 03:38:00,
2013-01-04 22:43:00,34.5,24.0,30.09,SSE,158,0.0,3.5,65,0.00,,---,0.00,VWS V13.00,2013-01-05 03:43:00,
2013-01-04 22:48:00,34.5,24.0,30.09,WSW,248,5.1,5.1,65,0.00,,---,0.00,VWS V13.00,2013-01-05 03:48:00,
2013-01-04 22:53:00,34.5,24.0,30.09,WNW,292,0.0,5.1,65,0.00,,---,0.00,VWS V13.00,2013-01-05 03:53:00,
2013-01-04 22:58:00,34.3,23.8,30.09,West,270,1.7,5.1,65,0.00,,---,0.00,VWS V13.00,2013-01-05 03:58:00,
2013-01-04 23:03:00,34.3,23.8,30.09,West,270,3.5,4.6,65,0.00,,---,0.00,VWS V13.00,2013-01-05 04:03:00,
2013-01-04 23:08:00,34.3,23.8,30.09,SW,225,0.0,4.6,65,0.00,,---,0.00,VWS V13.00,2013-01-05 04:08:00,
2013-01-04 23:13:00,34.3,23.8,30.10,WNW,292,4.4,4.6,65,0.00,,---,0.00,VWS V13.00,2013-01-05 04:13:00,
2013-01-04 23:18:00,34.3,23.8,30.09,West,270,1.1,4.6,65,0.00,,---,0.00,VWS V13.00,2013-01-05 04:18:00,
2013-01-04 23:23:00,34.3,23.8,30.09,SE,135,1.3,1.3,65,0.00,,---,0.00,VWS V13.00,2013-01-05 04:23:00,
2013-01-04 23:28:00,34.3,23.8,30.09,NW,315,1.7,7.3,65,0.00,,---,0.00,VWS V13.00,2013-01-05 04:28:00,
2013-01-04 23:33:00,34.3,23.8,30.09,SW,225,0.0,7.3,65,0.00,,---,0.00,VWS V13.00,2013-01-05 04:33:00,
2013-01-04 23:38:00,34.3,23.8,30.09,West,270,3.1,7.3,65,0.00,,---,0.00,VWS V13.00,2013-01-05 04:38:00,
2013-01-04 23:43:00,34.3,23.8,30.09,WNW,292,2.0,2.0,65,0.00,,---,0.00,VWS V13.00,2013-01-05 04:43:00,
2013-01-04 23:48:00,34.3,23.8,30.09,West,270,1.7,2.4,65,0.00,,---,0.00,VWS V13.00,2013-01-05 04:48:00,
2013-01-04 23:53:00,34.3,23.8,30.09,WSW,248,0.0,5.1,65,0.00,,---,0.00,VWS V13.00,2013-01-05 04:53:00,
2013-01-04 23:58:00,34.1,23.6,30.09,SSW,202,1.1,5.1,65,0.00,,---,0.00,VWS V13.00,2013-01-05 04:58:00,